Regional Weather Roundup
Issued by NWS

Home | Current Version | Previous Version | Text Only | Print | Product List | Glossary On
Versions: 1 2 3 4 5 6 7 8 9 10 11 12 13 14 15 16 17 18 19 20 21 22 23 24 25 26 27 28 29 30 31 32 33 34 35 36 37 38 39 40 41 42 43 44 45 46 47 48 49 50
000
ASUS43 KOAX 220610
RWRNE

WEATHER ROUNDUP FOR NEBRASKA
NATIONAL WEATHER SERVICE OMAHA NE
100 AM CDT TUE AUG 22 2017

NOTES: SATELLITE DATA IS BEING USED TO AUGMENT CLOUD COVER ABOVE
       12000 FEET.
       "FAIR" INDICATES FEW OR NO CLOUDS BELOW 12,000 FEET WITH NO
       SIGNIFICANT WEATHER AND/OR OBSTRUCTIONS TO VISIBILITY.


NEZ001>004-019>022-054>056-220700-
NEBRASKA PANHANDLE

CITY           SKY/WX    TMP DP  RH WIND       PRES   REMARKS
SCOTTSBLUFF    CLEAR     61  47  59 S5        30.25R
6HR MIN TEMP:  60; 6HR MAX TEMP:  82;

ALLIANCE       CLEAR     50  45  83 CALM      30.23R
6HR MIN TEMP:  49; 6HR MAX TEMP:  78;

CHADRON        CLEAR     51  45  79 W7        30.22R
6HR MIN TEMP:  50; 6HR MAX TEMP:  79;

GORDON         FAIR      54  45  71 CALM      30.22R
6HR MIN TEMP:  52; 6HR MAX TEMP:  78;

KIMBALL        CLEAR     57  48  72 NE8       30.28R
SIDNEY         CLEAR     59  50  72 N9        30.26R
6HR MIN TEMP:  57; 6HR MAX TEMP:  82;

$$

NEZ057>060-069>072-079>082-220700-
SOUTHWEST NEBRASKA

CITY           SKY/WX    TMP DP  RH WIND       PRES   REMARKS
NORTH PLATTE   CLEAR     64  63  96 CALM      30.15R
6HR MIN TEMP:  64; 6HR MAX TEMP:  80;

IMPERIAL       CLEAR     62  60  93 N7        30.17R
6HR MIN TEMP:  62; 6HR MAX TEMP:  85;

LEXINGTON      PTCLDY    67  63  86 N6        30.11S
MCCOOK         CLEAR     70  66  87 NE9       30.10R
6HR MIN TEMP:  70; 6HR MAX TEMP:  87;

OGALLALA       CLEAR     65  62  90 NE7       30.19R
$$

NEZ005>010-023>029-035>040-094-220700-
NORTH CENTRAL NEBRASKA

CITY           SKY/WX    TMP DP  RH WIND       PRES   REMARKS
VALENTINE      CLEAR     62  47  57 N9        30.17R
6HR MIN TEMP:  62; 6HR MAX TEMP:  80;

AINSWORTH      CLEAR     56  54  92 N6        30.16R
BROKEN BOW     CLEAR     65  63  93 N3        30.12R
6HR MIN TEMP:  65; 6HR MAX TEMP:  78;

O`NEILL        CLEAR     63  63 100 NW8       30.10R
ORD            CLEAR     62  60  93 NW5       30.08S
6HR MIN TEMP:  62; 6HR MAX TEMP:  76;

THEDFORD       CLEAR     63  57  81 N6        30.18R
$$

NEZ041-046>049-061>064-073>077-083>087-220700-
SOUTH CENTRAL NEBRASKA

CITY           SKY/WX    TMP DP  RH WIND       PRES   REMARKS
GRAND ISLAND   CLEAR     65  65 100 N7        30.07R
6HR MIN TEMP:  65; 6HR MAX TEMP:  84;

AURORA         CLOUDY    65  65 100 N7        30.05R
HASTINGS       MOCLDY    68  64  87 N8        30.06R
6HR MIN TEMP:  68; 6HR MAX TEMP:  83;

HEBRON         MOCLDY    70  65  85 NE13      30.01R
HOLDREGE       CLOUDY    68  64  86 N7        30.08R
KEARNEY        PTCLDY    66  64  93 N9        30.09R
YORK           CLOUDY    66  66 100 N7        30.04R
$$

NEZ011>018-030>034-042>045-220700-
NORTHEAST NEBRASKA

CITY           SKY/WX    TMP DP  RH WIND       PRES   REMARKS
NORFOLK        CLEAR     63  63 100 NW6       30.03S
6HR MIN TEMP:  63; 6HR MAX TEMP:  72; 6HR PCP:  0.85;

ALBION         CLEAR     63  63  98 NW5       30.06S
BLAIR          RAIN      65  65  97 CALM      30.01R
COLUMBUS       PTCLDY    65  64  97 NW6       30.04R
FREMONT        CLOUDY    65  65  99 W3        30.02R
TEKAMAH        CLOUDY    64  62  93 SW5       30.00R
6HR MIN TEMP:  64; 6HR MAX TEMP:  73; 6HR PCP:  0.66;

WAYNE          CLEAR     63  60  91 CALM      30.02R
$$

NEZ050>053-065>068-078-088>093-220700-
SOUTHEAST NEBRASKA

CITY           SKY/WX    TMP DP  RH WIND       PRES   REMARKS
LINCOLN        CLOUDY    67  65  93 E3        30.03R
6HR MIN TEMP:  67; 6HR MAX TEMP:  82; 6HR PCP: TRACE;

OMAHA EPPLEY   CLOUDY    67  63  87 CALM      30.01R
6HR MIN TEMP:  66; 6HR MAX TEMP:  81; 6HR PCP:  0.23;

BEATRICE       CLOUDY    67  66  96 NE10      30.01S
FALLS CITY     RAIN      66  65  96 NE14G22   30.01F FOG
6HR MIN TEMP:  66; 6HR MAX TEMP:  79; 6HR PCP:  0.40;

NEBRASKA CITY  CLOUDY    65  65 100 SE9       30.01F
PLATTSMOUTH    LGT RAIN  65  64  96 SE8       30.00R
$$

NEZ044-045-051>053-067-220700-
OMAHA AREA

CITY           SKY/WX    TMP DP  RH WIND       PRES   REMARKS
OMAHA EPPLEY   CLOUDY    67  63  87 CALM      30.01R
6HR MIN TEMP:  66; 6HR MAX TEMP:  81; 6HR PCP:  0.23;

BLAIR          RAIN      65  65  97 CALM      30.01R
FREMONT        CLOUDY    65  65  99 W3        30.02R
MILLARD        CLOUDY    68  66  94 CALM      30.02R
OFFUTT AFB     CLOUDY    66  64  93 CALM      30.01R
PLATTSMOUTH    LGT RAIN  65  64  96 SE8       30.00R
WAHOO          MOCLDY    66  65  97 NW3       30.02R
$$



USA.gov is the U.S. government's official web portal to all federal, state and local government web resources and services.